STARLINK-11566, 62914

Orbit data source: Space-Track

STARLINK-11566, 62914 is a payload satellite owned by SpaceX/Seattle (US) in LEO that was launched on Sat, 08 Feb 2025 UTC via an FALCON 9 launch vehicle from the Air Force Eastern Test Range (AFETR). Payload-class satellites include a variety of spacecraft equipped with specific instruments for various scientific and technological missions. These include communications satellites like Starlink; space stations such as the ISS; scientific satellites like the Hubble; Earth observation satellites from companies like Planet Labs, Umbra, and HawkEye 360; GPS; miniature CubeSats for education and research; and military/defense satellites.

Loading next visibility...
Identifier
62914, 2025-027H
Orbit
LEO
Country
Flag of USUS
Related business
Manufacturer
SpaceX/Seattle
Mission
Operational Commercial Communications
Bus & Motor
STARLINK V2MD, Unknown motor
Mass
960 kg wet, ~910 kg dry
Launch date (UTC)
2025-02-08 (10 months ago)
Launch vehicle
FALCON 9
Launch site
Air Force Eastern Test Range (AFETR)
Object type
Payload
Rocket body
Debris
Shape & HBR
Box + 2 Pan, 18.1 m
Radar Cross Section
36.964 m², Large (>1 m²)

Expand to show TLE details & history
Last TLE update: 1 day ago

TLE from 1 day ago
0 STARLINK-11566
1 62914U 25027H   25346.86329349  .00205421  00000-0  15591-2 0  9999
2 62914  42.9999 151.2893 0001382 277.1628  82.9083 15.70932213 49536
Epoch: 2025-12-12T20:43Z
TLE epoch observation values (Epoch: 2025-12-12T20:43:08.557Z)
Latitude
0.00001°
Longitude
118.70485°
Altitude
355.888 km
Speed
7.698 km/s
True Right ascension
10h 05m 09s
True Declination
0° 00' 00"
Sunlit
Object was in daylight at epoch
Visualization orbit readout
Latitude
Unknown
Longitude
Unknown
Altitude
Unknown
Speed
Unknown
Apparent Right ascension
Unknown
Apparent Declination
Unknown
Sunlit
N/A
Visualization observer readout
Local Sidereal Time
23:55:43
Azimuth
Unknown
Elevation
Unknown
Doppler factor
Unknown
Orbital elements
Apogee altitude
359.144 km
Perigee altitude
357.282 km
Semi-major axis
6,736.35 km
Eccentricity
0.00014
Inclination
42.9999°
RAAN
151.2893°
Arg. of periapsis
277.1628°
True anomaly
82.92402°
Mean anomaly
82.9083°
Eccentric anomaly
82.91616°
Mean motion
3.9256 °/min
Orbital period
91.71 mins
BSTAR
0.0015591
Loading maneuver chart data...
Computing Atmospheric mass density...
Loading historical data...
Loading historical data...
Loading historical data...
Loading historical data...
Loading historical data...
Loading historical data...
Loading historical data...

Documentation

Showing up to 5 results
|